x

9441102 - Westport, Wa (wptw1) Weather Station

4:36 - Mon 30th May 2016 All times are PDT. -7 hours from GMT.

  • Wind
    10mph, 14mph gusts
  • Sea Temp 58°f
  • Aire Temp 50°f
  • Sea Pressure 1025.9mb
  • 9441102 - Westport, Wa
  • 9441102 - Westport, Wa

More Historic Weather Station data

Upgrade to MSW Pro to gain access to the past 30 days of data for over 8000 Wavebouys and Weather Stations around the globe.

Join Pro

Comparision Forecast

View Surf forecast
   
lun 05/30 4:36 10 14 mph 1025.9mb 58f 50f
4:30 13 14 mph 1025.9mb 58f 50f
4:24 11 13 mph 1025.8mb 58f 50f
4:18 10 13 mph 1025.8mb 58f 51f
4:12 10 13 mph 1025.8mb 58f 51f
4:06 10 13 mph 1025.8mb 58f 51f
4:00 10 14 mph 1025.8mb 58f 51f
3:36 11 14 mph 1025.8mb 58f 51f
3:30 13 16 mph 1025.7mb 58f 51f
3:24 13 15 mph 1025.7mb 58f 52f
3:18 11 14 mph 1025.7mb 58f 52f
3:12 13 14 mph 1025.7mb 58f 52f
3:06 10 14 mph 1025.7mb 58f 52f
3:00 13 15 mph 1025.6mb 58f 52f
2:36 14 18 mph 1025.4mb 58f 53f
2:30 17 18 mph 1025.3mb 58f 53f
2:24 16 20 mph 1025.3mb 58f 53f
2:18 16 17 mph 1025.3mb 58f 53f
2:12 16 20 mph 1025.3mb 58f 53f
2:06 16 20 mph 1025.3mb 58f 53f
2:00 16 17 mph 1025.2mb 58f 53f
1:36 17 20 mph 1025.3mb 58f 53f
1:30 17 20 mph 1025.2mb 58f 53f
1:24 17 20 mph 1025.3mb 58f 53f
1:18 16 17 mph 1025.2mb 58f 53f
1:12 16 17 mph 1025.2mb 58f 53f
1:06 15 18 mph 1025.3mb 58f 53f
1:00 15 17 mph 1025.2mb 58f 53f
12:36 15 17 mph 1025.1mb 58f 53f
12:30 15 18 mph 1025.1mb 58f 53f
12:24 15 17 mph 1025.2mb 58f 53f
12:18 14 16 mph 1025.1mb 58f 53f
12:12 15 17 mph 1025.1mb 58f 53f
12:06 14 17 mph 1025.1mb 58f 53f
12:00 15 18 mph 1025mb 58f 53f
dom 05/29 11:36 15 16 mph 1025mb 58f 53f
11:30 13 17 mph 1024.9mb 58f 53f
11:24 13 15 mph 1024.9mb 58f 53f
11:18 14 15 mph 1024.9mb 58f 53f
11:12 14 17 mph 1024.9mb 58f 53f
11:06 13 17 mph 1024.9mb 58f 53f
11:00 16 18 mph 1024.9mb 58f 53f
10:36 16 21 mph 1024.9mb 58f 53f
10:30 17 21 mph 1025mb 58f 53f
10:24 17 21 mph 1025mb 58f 53f
10:18 17 20 mph 1025mb 58f 53f
10:12 16 21 mph 1024.9mb 58f 53f
10:06 16 20 mph 1024.9mb 58f 53f
10:00 15 18 mph 1024.7mb 58f 54f
9:36 22 24 mph 1024.3mb 58f 54f
9:30 21 24 mph 1024.3mb 58f 54f
9:24 21 23 mph 1024.2mb 58f 54f
9:18 18 22 mph 1024.1mb 58f 53f
9:12 16 21 mph 1024.2mb 58f 54f
9:06 17 22 mph 1024.2mb 58f 54f
9:00 20 22 mph 1024.2mb 58f 54f
8:36 21 22 mph 1024.2mb 58f 54f
8:30 21 22 mph 1024.2mb 58f 54f
8:24 20 22 mph 1024.2mb 58f 55f
8:18 20 23 mph 1024.2mb 58f 55f
8:12 21 23 mph 1024.2mb 58f 55f
8:06 17 23 mph 1024.1mb 58f 55f
8:00 20 22 mph 1024.2mb 58f 55f
7:36  -  mph 1023.9mb 58f 55f
7:30  -  mph 1023.9mb 58f 55f
7:24  -  mph 1023.9mb 58f 55f
7:18  -  mph 1023.8mb 58f 55f
7:12  -  mph 1024mb 58f 55f
7:06  -  mph 1023.9mb 58f 55f
7:00  -  mph 1023.9mb 58f 55f
6:36  -  mph 1023.7mb 58f -
6:30  -  mph 1023.7mb 58f -
6:24  -  mph 1023.6mb 58f -
6:18  -  mph 1023.7mb 58f -
6:12  -  mph 1023.7mb 58f -
6:06  -  mph 1023.7mb 58f -
6:00  -  mph 1023.7mb 58f -
5:36  -  mph 1023.7mb 58f 55f
5:30  -  mph 1023.7mb 58f 56f
5:24  -  mph 1023.7mb 58f 56f
5:18  -  mph 1023.7mb 58f 55f
5:12  -  mph 1023.7mb 58f 55f
5:06  -  mph 1023.7mb 58f 55f
5:00  -  mph 1023.7mb 59f 55f
4:36  -  mph 1023.6mb 59f -
4:30  -  mph 1023.6mb 59f -
4:24  -  mph 1023.6mb 58f -
4:18  -  mph 1023.7mb 58f -
4:12  -  mph 1023.6mb 58f -
4:06  -  mph 1023.7mb 57f -
4:00  -  mph 1023.7mb 57f -
3:36  -  mph 1023.6mb 57f 56f
3:30  -  mph 1023.7mb 57f 56f
3:24  -  mph 1023.7mb 57f 56f
3:18  -  mph 1023.7mb 57f 56f
3:12  -  mph 1023.7mb 57f 56f
3:06  -  mph 1023.7mb 57f 55f
3:00  -  mph 1023.6mb 57f 56f
2:36 14 18 mph 1023.5mb 57f 56f
2:30 17 20 mph 1023.5mb 57f 56f
2:24 16 18 mph 1023.4mb 57f 55f
2:18 16 18 mph 1023.4mb 57f 55f
2:12 16 18 mph 1023.4mb 57f 55f
2:06 15 18 mph 1023.4mb 57f 55f
2:00 15 16 mph 1023.3mb 57f 55f
1:36 15 16 mph 1023.2mb 57f 55f
1:30 15 17 mph 1023.2mb 58f 55f
1:24 14 15 mph 1023.1mb 58f 55f
1:18 13 14 mph 1023.1mb 58f 55f
1:12 13 15 mph 1023.1mb 57f 55f
1:06 14 15 mph 1023mb 57f 55f
1:00 13 15 mph 1023mb 57f 55f
12:36 14 16 mph 1022.8mb 57f 55f
12:30 15 17 mph 1022.8mb 57f 55f
12:24 15 17 mph 1022.7mb 57f 55f
12:18 14 16 mph 1022.6mb 57f 55f
12:12 14 15 mph 1022.5mb 57f 55f
12:06 13 16 mph 1022.5mb 57f 55f
12:00 14 16 mph 1022.4mb 57f 55f
11:36 14 15 mph 1022.1mb 57f 55f
11:30 13 15 mph 1022.1mb 57f 55f
11:24 15 18 mph 1022mb 57f 55f
11:18 14 16 mph 1022mb 57f 55f
11:12 10 14 mph 1022mb 57f 55f
11:06 11 14 mph 1022mb 57f 55f
11:00 10 11 mph 1021.9mb 57f 55f
10:36 11 14 mph 1021.7mb 57f 55f
10:30 11 14 mph 1021.8mb 57f 56f
10:24 10 13 mph 1021.7mb 57f 56f
10:18 10 11 mph 1021.7mb 57f 55f
10:12 10 13 mph 1021.7mb 57f 55f
10:06 10 14 mph 1021.6mb 57f 55f
10:00 10 13 mph 1021.6mb 57f 56f
9:36 11 14 mph 1021.3mb 56f 55f
9:30 11 14 mph 1021.2mb 56f 55f
9:24 11 13 mph 1021.2mb 56f 55f
9:18 13 14 mph 1021.2mb 56f 55f
9:12 10 13 mph 1021.1mb 56f 55f
9:06 11 14 mph 1021mb 56f 55f
9:00 11 14 mph 1021mb 56f 55f
8:36 13 14 mph 1020.7mb 56f 54f
8:30 13 14 mph 1020.6mb 56f 54f
8:24 11 13 mph 1020.6mb 56f 54f
8:18 13 14 mph 1020.5mb 56f 54f
8:12 10 14 mph 1020.5mb 56f 53f
8:06 13 15 mph 1020.5mb 56f 54f
8:00 11 14 mph 1020.4mb 56f 54f
7:36 9 10 mph 1020.2mb 56f 54f
7:30 8 10 mph 1020.1mb 56f 53f
7:24 8 9 mph 1020.1mb 56f 53f
7:18 7 10 mph 1020mb 56f 53f
7:12 9 10 mph 1019.9mb 56f 53f
7:06 10 13 mph 1019.9mb 56f 53f
7:00 10 13 mph 1019.8mb 56f 53f
6:36 8 9 mph 1019.6mb 56f 53f
6:30 8 10 mph 1019.5mb 56f 53f
6:24 10 11 mph 1019.5mb 56f 53f
6:18 7 9 mph 1019.4mb 56f 52f
6:12 7 10 mph 1019.4mb 56f 52f
6:06 10 13 mph 1019.4mb 56f 52f
6:00 8 10 mph 1019.3mb 56f 52f
5:54 8 11 mph 1019.2mb 56f 52f
5:48 8 9 mph 1019.2mb 56f 52f
5:36 8 9 mph 1019.1mb 56f 52f
5:30 7 8 mph 1019.1mb 56f 52f
5:24 8 9 mph 1019mb 56f 52f
5:18 9 11 mph 1018.9mb 56f 51f
5:12 10 13 mph 1018.9mb 56f 51f
5:06 11 15 mph 1018.9mb 56f 51f
5:00 14 17 mph 1018.8mb 56f 51f
4:54 17 18 mph 1018.7mb 56f 52f
4:48 14 15 mph 1018.6mb 56f 52f
4:36 16 18 mph 1018.6mb 56f 53f
4:30 6 8 mph 1018.6mb 56f 53f
4:24 7 8 mph 1018.6mb 56f 53f
4:18 7 8 mph 1018.5mb 56f 53f
4:12 7 8 mph 1018.4mb 56f 53f
4:06 7 8 mph 1018.4mb 56f 53f
4:00 6 7 mph 1018.4mb 56f 53f
3:54 6 9 mph 1018.4mb 56f 53f
3:48 8 9 mph 1018.4mb 56f 53f
3:36 9
mph
1018.3mb 56f 53f
3:30 8 9 mph 1018.3mb 56f 53f
3:24 7 8 mph 1018.4mb 56f 53f
3:18 8 9 mph 1018.3mb 56f 53f
3:12 8 9 mph 1018.3mb 56f 53f
3:06 9 10 mph 1018.3mb 56f 53f
3:00 8 10 mph 1018.3mb 56f 53f
2:54 7 8 mph 1018.2mb 56f 53f
2:48 7 8 mph 1018.2mb 56f 53f
2:36 8 9 mph 1018.2mb 56f 53f
2:30 8 9 mph 1018.2mb 56f 53f
2:24 8 9 mph 1018.1mb 56f 53f
2:18 8 9 mph 1018.2mb 56f 53f
2:12 9 10 mph 1018.2mb 56f 53f
2:06 9 10 mph 1018.2mb 56f 53f
2:00 9 10 mph 1018.2mb 56f 53f
1:54 9 11 mph 1018.3mb 56f 53f
1:48 10 11 mph 1018.3mb 56f 53f
1:36 10 11 mph 1018.3mb 56f 53f
1:30 9 11 mph 1018.3mb 56f 53f
1:24 9 11 mph 1018.2mb 56f 53f
1:18 10 11 mph 1018.1mb 56f 53f
1:12 10 11 mph 1018.1mb 56f 54f
1:06 10 13 mph 1018.1mb 56f 54f
1:00 11 14 mph 1018.1mb 56f 54f
12:54 13 14 mph 1018.1mb 56f 54f
12:48 9 11 mph 1018.1mb 56f 54f
12:36 9 10 mph 1018.1mb 56f 54f
12:30 8 9 mph 1018.1mb 56f 54f
12:24 8 9 mph 1018.1mb 57f 54f
12:18 7 8 mph 1018.1mb 57f 54f
12:12 7 8 mph 1018.1mb 57f 54f
12:06 7 8 mph 1018.1mb 57f 54f
12:00 6 7 mph 1018.1mb 57f 54f
sáb 05/28 11:54 6 8 mph 1018.1mb 57f 54f
11:48 7 8 mph 1018.1mb 57f 54f
11:36 7 8 mph 1018.1mb 56f 54f
11:30 6 8 mph 1018.1mb 56f 54f
11:24 7 8 mph 1018.1mb 56f 54f
11:18 7 8 mph 1018.1mb 56f 54f
11:12 6 7 mph 1018.1mb 56f 54f
11:06 6 7 mph 1018.1mb 56f 54f
11:00 6 7 mph 1018.1mb 56f 54f
10:36 6 7 mph 1017.9mb 56f 54f
10:30 6 7 mph 1017.9mb 56f 54f
10:24 6 7 mph 1017.9mb 56f 54f
10:18 7 8 mph 1017.9mb 56f 54f
10:12 7 8 mph 1017.8mb 56f 54f
10:06 6 7 mph 1017.8mb 56f 54f
10:00 6 9 mph 1017.8mb 56f 53f
9:54 7 9 mph 1017.8mb 56f 53f
9:48 8 9 mph 1017.8mb 56f 53f
9:36 8 9 mph 1017.7mb 56f 53f
9:30 8 9 mph 1017.7mb 56f 53f
9:24 7 8 mph 1017.7mb 56f 53f
9:18 8 10 mph 1017.6mb 56f 53f
9:12 7 9 mph 1017.7mb 56f 53f
9:06 7 8 mph 1017.6mb 56f 53f
9:00 7 8 mph 1017.6mb 56f 54f
8:54 6 8 mph 1017.6mb 56f 54f
8:48 7 9 mph 1017.5mb 56f 54f
8:36 7 8 mph 1017.5mb 56f 54f
8:30 7 9 mph 1017.4mb 56f 54f
8:24 7 9 mph 1017.3mb 56f 54f
8:18 6 8 mph 1017.3mb 56f 54f
8:12 6 7 mph 1017.2mb 56f 54f
8:06 6 7 mph 1017.3mb 56f 54f
8:00 6 8 mph 1017.3mb 56f 54f
7:54 7 8 mph 1017.2mb 56f 54f
7:48 7 11 mph 1017.2mb 56f 54f
7:36  -  mph 1017.2mb 56f 54f
7:30  -  mph 1017.2mb 56f 54f
7:24  -  mph 1017.1mb 56f 54f
7:18  -  mph 1017.1mb 56f 54f
7:12  -  mph 1017.1mb 56f 54f
7:06  -  mph 1017.1mb 56f 54f
7:00  -  mph 1017mb 56f 53f
6:54  -  mph 1017mb 56f 53f
6:48  -  mph 1017mb 56f 53f
6:36  -  mph 1016.9mb 56f 53f
6:30  -  mph 1016.9mb 56f 53f
6:24  -  mph 1016.9mb 56f 53f
6:18  -  mph 1016.9mb 56f 53f
6:12  -  mph 1016.9mb 56f 53f
6:06  -  mph 1017mb 56f 53f
6:00  -  mph 1017mb 56f 53f
5:54  -  mph 1017mb 56f 53f
5:48  -  mph 1017mb 56f 53f
5:36  -  mph 1017.2mb 56f 53f
5:30  -  mph 1017.2mb 56f 53f
5:24  -  mph 1017.2mb 56f 53f
5:18  -  mph 1017.2mb 56f 53f
5:12  -  mph 1017.2mb 56f 53f
5:06  -  mph 1017.3mb 56f 53f
5:00  -  mph 1017.4mb 56f 53f
4:54  -  mph 1017.4mb 56f 53f
4:48  -  mph 1017.5mb 56f 53f
4:36  -  mph 1017.6mb 56f -
4:30  -  mph 1017.6mb 56f -
4:24  -  mph 1017.7mb 56f -
4:18  -  mph 1017.8mb 56f -
4:12  -  mph 1017.8mb 56f -
4:06  -  mph 1017.8mb 56f -
4:00  -  mph 1017.9mb 56f -
3:54  -  mph 1017.9mb 56f -
3:48  -  mph 1017.9mb 56f -
3:36  -  mph - 56f 53f
3:30  -  mph - 56f 53f
3:24  -  mph - 56f 53f
3:18  -  mph - 56f 53f
3:12  -  mph - 56f 53f
3:06  -  mph - 56f 53f
3:00  -  mph - 56f 53f
2:54  -  mph - 56f 53f
2:48  -  mph - 56f 53f
2:36 18 28 mph 1018mb 56f 54f
2:30 16 24 mph 1017.9mb 56f 54f
2:24 14 20 mph 1018mb 56f 53f
2:18 15 23 mph 1018mb 56f 53f
2:12 15 25 mph 1018mb 56f 53f
2:06 16 24 mph 1018mb 56f 53f
2:00 18 23 mph 1018mb 56f 53f
1:54 16 21 mph 1018mb 56f 53f
1:48 15 21 mph 1018mb 56f 53f
1:36 13 22 mph 1018.1mb 56f 53f
1:30 17 24 mph 1018.1mb 56f 53f
1:24 15 21 mph 1018.2mb 56f 53f
1:18 20 23 mph 1018.2mb 56f 53f
1:12 14 22 mph 1018.2mb 56f 53f
1:06 17 23 mph 1018.2mb 56f 53f
1:00 18 24 mph 1018.2mb 56f 53f
12:54 17 24 mph 1018.3mb 56f 53f
12:48 20 25 mph 1018.3mb 56f 53f
12:36 17 21 mph 1018.2mb 56f 53f
12:30 14 21 mph 1018.2mb 56f 53f
12:24 16 21 mph 1018.2mb 56f 54f
12:18 16 22 mph 1018.2mb 56f 54f
12:12 18 22 mph 1018.2mb 56f 53f
12:06 18 23 mph 1018.2mb 56f 54f
12:00 17 22 mph 1018.2mb 56f 53f
11:54 15 22 mph 1018.1mb 56f 53f
11:48 16 24 mph 1018.2mb 56f 53f
11:36 16 22 mph 1018.2mb 56f 53f
11:30 15 20 mph 1018.2mb 56f 53f
11:24 16 23 mph 1018.2mb 56f 53f
11:18 17 23 mph 1018.3mb 56f 53f
11:12 15 23 mph 1018.2mb 56f 53f
11:06 14 22 mph 1018.2mb 56f 53f
11:00 16 22 mph 1018.2mb 56f 53f
10:54 17 23 mph 1018.2mb 56f 53f
10:48 14 23 mph 1018.2mb 56f 53f
10:36 17 22 mph 1018.2mb 56f 52f
10:30 17 24 mph 1018.3mb 56f 52f
10:24 18 23 mph 1018.3mb 56f 52f
10:18 20 23 mph 1018.2mb 56f 52f
10:12 16 23 mph 1018.3mb 56f 52f
10:06 20 26 mph 1018.3mb 56f 52f
10:00 17 22 mph 1018.3mb 56f 52f
9:54 18 24 mph 1018.3mb 56f 53f
9:48 13 22 mph 1018.3mb 56f 53f
9:36 14 18 mph 1018.4mb 56f 53f
9:30 15 18 mph 1018.4mb 56f 53f
9:24 13 21 mph 1018.4mb 56f 53f
9:18 13 17 mph 1018.4mb 56f 53f
9:12 14 18 mph 1018.5mb 56f 52f
9:06 15 23 mph 1018.5mb 56f 53f
9:00 17 22 mph 1018.4mb 56f 53f
8:54 14 20 mph 1018.3mb 56f 53f
8:48 14 20 mph 1018.3mb 56f 53f
8:36 16 20 mph 1018.2mb 56f 53f
8:30 15 21 mph 1018.2mb 56f 53f
8:24 16 21 mph 1018.3mb 56f 53f
8:18 14 20 mph 1018.3mb 56f 53f
8:12 17 22 mph 1018.3mb 56f 53f
8:06 14 17 mph 1018.3mb 56f 53f
8:00 15 20 mph 1018.2mb 55f 53f
7:54 16 20 mph 1018.2mb 55f 53f
7:48 13 20 mph 1018.3mb 55f 52f
7:36 15 20 mph 1018.3mb 55f 52f
7:30 17 22 mph 1018.3mb 55f 52f
7:24 17 23 mph 1018.3mb 55f 52f
7:18 18 23 mph 1018.3mb 55f 52f
7:12 18 23 mph 1018.4mb 55f 52f
7:06 20 24 mph 1018.4mb 55f 52f
7:00 20 26 mph 1018.4mb 55f 53f
6:54 16 20 mph 1018.4mb 55f 53f
6:48 16 20 mph 1018.4mb 55f 53f
6:36 16 22 mph 1018.4mb 55f 53f
6:30 16 21 mph 1018.5mb 55f 53f
6:24 14 20 mph 1018.4mb 55f 53f
6:18 14 20 mph 1018.4mb 55f 53f
6:12 14 18 mph 1018.4mb 55f 53f
6:06 14 17 mph 1018.5mb 55f 52f
6:00 14 18 mph 1018.5mb 55f 52f
5:54 10 15 mph 1018.5mb 55f 52f
5:48 10 13 mph 1018.6mb 55f 52f
5:36 13 18 mph 1018.6mb 55f 52f
5:30 16 20 mph 1018.7mb 55f 52f
5:24 15 20 mph 1018.7mb 55f 52f
5:18 16 20 mph 1018.7mb 56f 53f
5:12 13 16 mph 1018.7mb 56f 52f
5:06 13 15 mph 1018.8mb 56f 52f
5:00 14 17 mph 1018.7mb 56f 52f
4:54 14 18 mph 1018.8mb 56f 52f
4:48 15 18 mph 1018.9mb 56f 52f
4:36 20 22 mph 1018.9mb 56f 52f
4:30 16 24 mph 1018.8mb 56f 52f
4:24 15 20 mph 1018.8mb 56f 52f
4:18 18 21 mph 1018.8mb 56f 52f
4:12 14 18 mph 1018.8mb 56f 52f
4:06 11 15 mph 1018.9mb 56f 51f
4:00 14 18 mph 1018.9mb 56f 51f
3:54 14 18 mph 1018.9mb 56f 51f
3:48 11 16 mph 1019mb 56f 51f
3:36 14 17 mph 1019.1mb 56f 51f
3:30 11 17 mph 1019.1mb 56f 51f
3:24 13 16 mph 1019.2mb 56f 51f
3:18 11 17 mph 1019.3mb 56f 51f
3:12 14 17 mph 1019.4mb 56f 51f
3:06 10 16 mph 1019.5mb 56f 51f
3:00 11 15 mph 1019.6mb 57f 51f
2:54 13 17 mph 1019.7mb 57f 51f
2:48 10 17 mph 1019.7mb 56f 51f
2:36 11 15 mph 1019.8mb 56f 51f
2:30 11 16 mph 1019.8mb 56f 51f
2:24 13 16 mph 1019.8mb 56f 52f
2:18 13 18 mph 1019.9mb 56f 52f
2:12 15 18 mph 1020.1mb 56f 53f
2:06 13 15 mph 1020.1mb 56f 53f
2:00 11 15 mph 1020.2mb 56f 53f
1:54 11 15 mph 1020.3mb 56f 53f
1:48 13 15 mph 1020.4mb 56f 53f
1:36 10 14 mph 1020.6mb 56f 53f
1:30 13 15 mph 1020.6mb 56f 53f
1:24 11 14 mph 1020.7mb 56f 53f
1:18 8 14 mph 1020.7mb 56f 53f
1:12 8 13 mph 1020.7mb 56f 53f
1:06 10 13 mph 1020.8mb 56f 53f
1:00 9 11 mph 1020.9mb 56f 53f
12:54 8 10 mph 1020.9mb 56f 53f
12:48 9 11 mph 1020.9mb 56f 53f
12:36 8 11 mph 1021.1mb 56f 53f
12:30 9 13 mph 1021.2mb 57f 53f
12:24 9 13 mph 1021.2mb 57f 53f
12:18 11 13 mph 1021.3mb 57f 53f
12:12 11 13 mph 1021.3mb 57f 53f
12:06 11 14 mph 1021.4mb 57f 53f
12:00 10 11 mph 1021.4mb 57f 53f
vie 05/27 11:54 9 11 mph 1021.4mb 57f 53f
11:48 9 13 mph 1021.4mb 57f 53f
11:36 10 13 mph 1021.4mb 57f 53f
11:30 9 10 mph 1021.5mb 57f 53f
11:24 8 10 mph 1021.6mb 57f 53f
11:18 8 10 mph 1021.6mb 57f 53f
11:12 9 10 mph 1021.6mb 57f 53f
11:06 6 7 mph 1021.6mb 57f 53f
11:00 6 8 mph 1021.6mb 57f 53f
10:54 7 8 mph 1021.6mb 57f 53f
10:48 7 11 mph 1021.7mb 57f 53f
10:36 8 9 mph 1021.8mb 57f 53f
10:30 7 8 mph 1021.8mb 57f 53f
10:24 8 9 mph 1021.8mb 57f 53f
10:18 6 9 mph 1021.8mb 57f 53f
10:12 7 8 mph 1021.8mb 57f 53f
10:06 7 8 mph 1021.8mb 57f 53f
10:00 8 9 mph 1021.8mb 57f 53f
9:54 8 9 mph 1021.8mb 57f 53f
9:48 8 9 mph 1021.8mb 57f 53f
9:36 8 10 mph 1021.8mb 57f 53f
9:30 7 9 mph 1021.8mb 57f 53f
9:24 8 9 mph 1021.9mb 57f 53f
9:18 9 10 mph 1021.8mb 57f 53f
9:12 9 10 mph 1021.8mb 57f 53f
9:06 10 11 mph 1021.8mb 57f 53f
9:00 9 10 mph 1021.8mb 57f 53f
8:54 9 11 mph 1021.9mb 57f 53f
8:48 9 10 mph 1021.8mb 57f 53f
8:36 10 11 mph 1021.8mb 56f 53f
8:30 10 13 mph 1021.8mb 56f 53f
8:24 9 10 mph 1021.9mb 56f 53f
8:18 9 14 mph 1021.9mb 56f 53f
8:12 10 13 mph 1021.9mb 56f 53f
8:06 11 14 mph 1021.9mb 56f 53f
8:00 10 11 mph 1021.9mb 56f 53f
7:54 10 13 mph 1022mb 56f 53f
7:48 8 10 mph 1022mb 55f 53f
7:36 8 10 mph 1022mb - -
7:30 9 11 mph 1022mb - -
7:24 9 10 mph 1022.1mb - -
7:18 9 11 mph 1022.1mb - -
7:12 10 11 mph 1022.1mb - -
7:06 8 10 mph 1022.2mb - -
7:00 10 11 mph 1022.3mb - -
6:54 9 10 mph 1022.2mb - -
6:48 10 13 mph 1022.3mb - -
6:36  -  mph 1022.3mb - 53f
6:30  -  mph 1022.3mb - 53f
6:24  -  mph 1022.3mb - 53f
6:18  -  mph 1022.3mb - 53f
6:12  -  mph 1022.4mb - 53f
6:06  -  mph 1022.4mb - 53f
6:00  -  mph 1022.3mb - 53f
5:54  -  mph 1022.4mb - 53f
5:48  -  mph 1022.4mb - 53f
4:36  -  mph 1022.7mb 56f 53f
4:30  -  mph 1022.8mb 56f 53f
4:24  -  mph 1022.8mb 56f 53f
4:18  -  mph 1022.8mb 56f 53f
4:12  -  mph 1022.8mb 56f 53f
4:06  -  mph 1022.9mb 56f 53f
4:00  -  mph 1022.9mb 56f 53f
3:54  -  mph 1023mb 56f 53f
3:48  -  mph 1023.1mb 56f 53f
3:36 9 11 mph - 56f 53f
3:30 9 11 mph - 56f 53f
3:24 8 10 mph - 56f 52f
3:18 9 10 mph - 56f 52f
3:12 8 10 mph - 56f 53f
3:06 8 10 mph - 56f 52f
3:00 8 10 mph - 56f 52f
2:54 8 10 mph - 56f 53f
2:48 8 10 mph - 56f 53f
2:36 7 9 mph 1023.1mb - -
2:30 8 9 mph 1023.1mb - -
2:24 8 9 mph 1023mb - -
2:18 8 9 mph 1023mb - -
2:12 8 11 mph 1023mb - -
2:06 9 11 mph 1023mb - -
2:00 9 10 mph 1023mb - -
1:54 9 10 mph 1023mb - -
1:48 8 10 mph 1023mb - -
1:36 9 10 mph 1023.1mb 56f 52f
1:30 10
mph
1023.1mb 56f 52f
1:24 10 14 mph 1023mb 56f 52f
1:18 13 15 mph 1023.1mb 57f 52f
1:12 13 15 mph 1023mb 57f 53f
1:06 11 13 mph 1023.1mb 57f 52f
1:00 11 16 mph 1023.1mb 57f 52f
12:54 14 17 mph 1023.1mb 57f 51f
12:48 15 17 mph 1023.1mb 57f 51f
12:36 17 20 mph 1023.1mb 56f 51f
12:30 18 20 mph 1023.1mb 56f 51f
12:24 14 16 mph 1023.1mb 56f 52f
12:18 14 18 mph 1023.1mb 56f 52f
12:12 11 14 mph 1023mb 56f 52f
12:06 10 11 mph 1023.1mb 56f 51f
12:00 9 10 mph 1023.1mb 56f 52f
11:54 8 13 mph 1023mb 56f 52f
11:48 9 11 mph 1023mb 56f 51f
11:36 8 11 mph 1023mb 56f 51f
11:30 9 11 mph 1022.9mb 56f 51f
11:24 8 10 mph 1022.8mb 56f 51f
11:18 8 11 mph 1022.8mb 56f 51f
11:12 10 13 mph 1022.8mb 56f 51f
11:06 13 15 mph 1022.8mb 56f 51f
11:00 14 15 mph 1022.7mb 56f 51f
10:54 14 16 mph 1022.7mb 56f 51f
10:48 13 15 mph 1022.7mb 56f 52f
10:36 9 11 mph 1022.8mb 56f 52f
10:30 9 11 mph 1022.7mb 56f 53f
10:24 10 13 mph 1022.7mb 56f 53f
10:18 9 11 mph 1022.7mb 56f 53f
10:12 8 9 mph 1022.6mb 56f 54f
10:06 9 10 mph 1022.7mb 56f 55f
10:00 8 9 mph 1022.7mb 56f 55f
9:54 8 10 mph 1022.7mb 56f 55f
9:48 8 9 mph 1022.7mb 56f 55f
9:36 7 8 mph 1022.7mb 56f 55f
9:30 6 8 mph 1022.7mb 56f 54f
9:24 6 10 mph 1022.6mb 56f 54f
9:18 8 11 mph 1022.5mb 56f 53f
9:12 10 14 mph 1022.5mb 56f 52f
9:06 13 18 mph 1022.5mb 56f 52f
9:00 18 22 mph 1022.6mb 56f 52f
8:54 17 21 mph 1022.6mb 56f 52f
8:48 16 20 mph 1022.6mb 56f 52f
8:36 11 15 mph 1022.5mb 56f 52f
8:30 14 17 mph 1022.5mb 56f 52f
8:24 14 17 mph 1022.5mb 56f 52f
8:18 16 17 mph 1022.5mb 56f 52f
8:12 13 15 mph 1022.6mb 56f 51f
8:06 8 11 mph 1022.6mb 56f 51f
8:00 8 10 mph 1022.6mb 56f 51f
7:54 9 10 mph 1022.6mb 56f 51f
7:48 8 10 mph 1022.6mb 56f 51f
7:36 10
mph
1022.5mb 56f 51f
7:30 8 9 mph 1022.5mb 56f 50f
7:24 8 11 mph 1022.5mb 56f 50f
7:18 8 11 mph 1022.4mb 56f 50f
7:12 11 16 mph 1022.5mb 56f 50f
7:06 15 23 mph 1022.4mb 56f 50f
7:00 23 25 mph 1022.3mb 55f 52f
6:54 15 16 mph 1022.3mb 55f 52f
6:48 13 16 mph 1022.3mb 55f 52f
6:36 9 13 mph 1022.2mb 55f 51f
6:30 6 7 mph 1022.2mb 55f 51f
6:24 7 8 mph 1022.1mb 55f 51f
6:18 7 8 mph 1022.1mb 55f 51f
6:12 6 7 mph 1022mb 55f 50f
6:06 6 8 mph 1022mb 55f 50f
6:00 6 7 mph 1022.1mb 55f 50f
5:36 8 11 mph 1022.1mb 55f 50f
5:30 11 14 mph 1022.1mb 55f 50f
5:24 11 17 mph 1022.1mb 55f 50f
5:18 14 16 mph 1022mb 55f 51f
5:12 9 13 mph 1022mb 55f 51f
5:06 10 11 mph 1022.1mb 55f 51f
5:00 9 11 mph 1022mb 55f 51f
4:54 8 9 mph 1022mb 55f 51f
4:48 7 9 mph 1022mb 55f 50f
4:36 8
mph
1022mb 55f 51f
4:30 7 9 mph 1022mb 55f 50f
4:24 9 10 mph 1021.9mb 55f 50f
4:18 7 8 mph 1021.9mb 55f 50f
4:12 7 10 mph 1022.1mb 55f 49f
4:06 10 14 mph 1022.2mb 55f 49f
4:00 13 15 mph 1022.2mb 55f 49f
3:54 16 24 mph 1022.3mb 55f 50f
3:48 23 29 mph 1022.3mb 55f 52f
3:36 16 17 mph 1022.2mb 55f 52f
3:30 16 18 mph 1022.2mb 56f 52f
3:24 16 18 mph 1022.2mb 56f 52f
3:18 17 18 mph 1022.3mb 56f 52f
3:12 16
mph
1022.3mb 56f 52f
3:06 14 16 mph 1022.3mb 56f 52f
3:00 15 18 mph 1022.3mb 56f 52f
2:54 17 18 mph 1022.4mb 56f 52f
2:48 17 20 mph 1022.4mb 56f 52f
2:36 17 20 mph 1022.4mb 56f 53f
2:30 16 18 mph 1022.5mb 56f 52f
2:24 14 16 mph 1022.5mb 56f 53f
2:18 16 17 mph 1022.4mb 56f 53f
2:12 16 20 mph 1022.5mb 56f 53f
2:06 16 18 mph 1022.5mb 56f 52f
2:00 17 18 mph 1022.5mb 56f 52f
1:54 18 24 mph 1022.4mb 56f 53f
1:48 22 23 mph 1022.5mb 56f 53f
1:36 20 22 mph 1022.5mb 56f 53f
1:30 20 22 mph 1022.5mb 56f 53f
1:24 16 20 mph 1022.5mb 56f 53f
1:18 18 21 mph 1022.5mb 56f 53f
1:12 13 17 mph 1022.5mb 57f 53f
1:06 15 17 mph 1022.5mb 57f 53f
1:00 17 20 mph 1022.6mb 57f 53f
12:54 17 18 mph 1022.6mb 57f 53f
12:48 15 18 mph 1022.6mb 57f 53f
12:36 18 21 mph 1022.7mb 56f 53f
12:30 18 21 mph 1022.7mb 56f 52f
12:24 16 20 mph 1022.8mb 56f 52f
12:18 17 21 mph 1022.8mb 56f 52f
12:12 16 20 mph 1022.8mb 56f 52f
12:06 18 22 mph 1022.9mb 56f 53f
12:00 15 17 mph 1023mb 56f 53f
jue 05/26 11:54 15 18 mph 1023mb 57f 53f
11:48 15 18 mph 1023mb 57f 53f
11:36 16 20 mph 1023mb 57f 53f
11:30 17 20 mph 1023mb 57f 53f
11:24 16 20 mph 1023mb 57f 53f
11:18 17 20 mph 1023mb 57f 53f
11:12 20 23 mph 1023.1mb 57f 53f
11:06 22 24 mph 1023.1mb 57f 53f
11:00 22 23 mph 1023.2mb 57f 53f
10:54 15 17 mph 1023.2mb 57f 53f
10:48 14 15 mph 1023.2mb 57f 53f
10:36 16 21 mph 1023.2mb 57f 53f
10:30 20 23 mph 1023.3mb 57f 53f
10:24 18 21 mph 1023.3mb 57f 53f
10:18 18 21 mph 1023.3mb 57f 53f
10:12 18 21 mph 1023.3mb 57f 53f
10:06 15 17 mph 1023.4mb 57f 53f
10:00 13 20 mph 1023.4mb 57f 53f
9:54 18 20 mph 1023.3mb 57f 53f
9:48 17 20 mph 1023.3mb 57f 53f
9:36 18 22 mph 1023.2mb 57f 53f
9:30 20 22 mph 1023.1mb 57f 53f
9:24 21 23 mph 1023.1mb 57f 53f
9:18 21 22 mph 1023.1mb 57f 52f
9:12 18 20 mph 1023.1mb 57f 52f
9:06 8 9 mph 1023.1mb 57f 52f
9:00 9 11 mph 1023.1mb 57f 52f
8:54 9 11 mph 1023.1mb 57f 52f
8:48 9 11 mph 1023.1mb 57f 52f
8:36 13 15 mph 1023.1mb 57f 53f
8:30 17 21 mph 1023.1mb 57f 53f
8:24 18 22 mph 1023.1mb 57f 53f
8:18 18 21 mph 1023.1mb 57f 53f
8:12 17 21 mph 1023.1mb 57f 53f
8:06 17 21 mph 1023.1mb 57f 53f
8:00 17 21 mph 1023.1mb 57f 53f
7:54 15 17 mph 1023.2mb 57f 53f
7:48 13 17 mph 1023.2mb 57f 53f
7:36  -  mph 1023.2mb - -
7:30  -  mph 1023.2mb - -
7:24  -  mph 1023.2mb - -
7:18  -  mph 1023.2mb - -
7:12  -  mph 1023.2mb - -
7:06  -  mph 1023.2mb - -
7:00  -  mph 1023.2mb - -
6:54  -  mph 1023.2mb - -
6:48  -  mph 1023.3mb - -
6:36 14 16 mph 1023.4mb 55f -
6:30 14 15 mph 1023.4mb 55f -
6:24 13 15 mph 1023.4mb 55f -
6:18 14 16 mph 1023.4mb 55f -
6:12 15 17 mph 1023.5mb 55f -
6:06 13 16 mph 1023.6mb 55f -
6:00 16 17 mph 1023.6mb 55f -
5:54 14 15 mph 1023.7mb 55f -
5:48 13 15 mph 1023.7mb 55f -
5:36 13 16 mph 1023.7mb 55f 53f
5:30 14 16 mph 1023.8mb 55f 53f
5:24 14 16 mph 1023.8mb 55f 53f
5:18 13 15 mph 1023.9mb 55f 52f
5:12 10 16 mph 1023.9mb 55f 52f
5:06 13 15 mph 1023.9mb 55f 52f
5:00 13
mph
1024mb 55f 51f
4:54 11 17 mph 1024mb 55f 51f
4:48 20 23 mph 1024mb 56f 51f
4:36 21 24 mph 1024mb - -
4:30 21 23 mph 1024mb - -
4:24 20 22 mph 1024mb - -
4:18 17 21 mph 1024mb - -
4:12 15 17 mph 1024.1mb - -
4:06 14 17 mph 1024.1mb - -
4:00 16 18 mph 1024.1mb - -
3:54 16 18 mph 1024mb - -
3:48 15 16 mph 1024mb - -
3:36  -  mph 1024.1mb 58f -
3:30  -  mph 1024.1mb 58f -
3:24  -  mph 1024.2mb 58f -
3:18  -  mph 1024.2mb 58f -
3:12  -  mph 1024.3mb 58f -
3:06  -  mph 1024.3mb 58f -
3:00  -  mph 1024.2mb 58f -
2:54  -  mph 1024.3mb 58f -
2:48  -  mph 1024.3mb 58f -
2:36 14 17 mph 1024.3mb 58f 53f
2:30 10 15 mph 1024.4mb 58f 53f
2:24 14 15 mph 1024.3mb 58f 53f
2:18 13 15 mph 1024.3mb 57f 53f
2:12 13 14 mph 1024.3mb 57f 52f
2:06 11 13 mph 1024.2mb 57f 52f
2:00 9 10 mph 1024.3mb 57f 51f
1:54 8 16 mph 1024.4mb 57f 52f
1:48 13 20 mph 1024.5mb 57f 52f
1:36 13 15 mph 1024.4mb 57f 53f
1:30 11 14 mph 1024.3mb 57f 53f
1:24 9 11 mph 1024.3mb 57f 52f
1:18 9 11 mph 1024.2mb 57f 52f
1:12 10 13 mph 1024.2mb 57f 52f
1:06 14 15 mph 1024.2mb 57f 52f